Location: NJAA Observatory
(40.6819°N, 74.8979°W)
Time: 16:53:49
(UTC-04:00)

Cosmos 1328 Rocket - Visible Passes

Search period start: 22 October 2017 00:00
Search period end: 01 November 2017 00:00
Orbit: 601 x 628 km, 82.5° (Epoch: 22 October)

Date Brightness Start Highest point End Pass type
(mag) Time Alt. Az. Time Alt. Az. Time Alt. Az.
22 Oct 6.6 06:09:23 10° NE 06:11:45 14° ENE 06:14:07 10° ESE visible
22 Oct 3.6 20:15:24 10° SSW 20:25:10 - N 20:19:44 75° W visible
23 Oct 6.0 06:24:19 10° NNE 06:27:54 25° ENE 06:31:27 10° SE visible
23 Oct 5.0 18:55:38 10° SE 18:58:22 16° E 19:01:05 10° NE visible
23 Oct 4.8 20:31:38 10° SSW 20:35:46 40° WNW 20:39:55 10° N visible
24 Oct 4.8 06:39:48 10° N 06:43:57 45° E 06:48:03 10° SSE visible
24 Oct 4.3 19:10:19 10° SSE 19:14:05 29° E 19:17:51 10° NNE visible
24 Oct 5.8 20:48:20 10° SW 20:51:50 23° WNW 20:55:19 10° NNW visible
25 Oct 3.6 19:25:38 10° S 19:29:53 53° E 19:34:09 10° NNE visible
25 Oct 6.6 21:05:54 10° W 21:08:00 13° WNW 21:10:06 10° NW visible
26 Oct 6.7 05:35:36 10° NE 05:37:41 13° ENE 05:39:46 10° E visible
26 Oct 3.5 19:41:23 10° S 19:45:46 82° W 19:50:09 10° N visible
27 Oct 6.0 05:50:23 10° NNE 05:53:50 23° ENE 05:57:17 10° SE visible
27 Oct 4.7 19:57:33 10° SSW 20:01:44 44° WNW 20:05:55 10° N visible
28 Oct 4.9 06:05:49 10° N 06:09:54 41° ENE 06:13:58 10° SSE visible
28 Oct 4.5 18:36:27 10° SE 18:40:06 26° E 18:43:44 10° NNE visible
28 Oct 5.8 20:14:12 10° SW 20:17:47 25° WNW 20:21:23 10° NNW visible
29 Oct 3.7 06:21:33 10° N 06:25:53 78° E 06:30:10 10° S visible
29 Oct 3.7 18:51:41 10° SSE 18:55:53 48° E 19:00:05 10° NNE visible
29 Oct 6.6 20:31:35 10° WSW 20:33:56 14° WNW 20:36:17 10° NW visible
30 Oct 6.7 05:01:53 10° NE 05:03:37 12° ENE 05:05:21 10° E visible
30 Oct 3.6 06:37:32 10° NNW 06:41:46 56° W 06:45:58 10° S visible
30 Oct 3.5 19:07:23 10° S 19:11:45 89° WNW 19:16:07 10° N visible
31 Oct 6.0 05:16:28 10° NNE 05:19:47 21° ENE 05:23:06 10° SE visible
31 Oct 4.3 06:53:48 10° NNW 06:57:34 30° W 07:01:19 10° SSW visible
31 Oct 4.6 19:23:29 10° SSW 19:27:42 48° W 19:31:55 10° N visible
